Weather History for Topeka Forbes, KS

Change the Weather History Date:

Friday, May 2, 2014

  Actual Average Record
Temperature  
Mean Temperature 54 °F -  
Max Temperature 71 °F 69 °F 89 °F (1952)
Min Temperature 37 °F 46 °F 28 °F (2005)
Degree Days  
Heating Degree Days 11    
Growing Degree Days 4 (Base 50)    
Moisture  
Dew Point 35 °F    
Average Humidity 51    
Maximum Humidity 86    
Minimum Humidity 25    
Precipitation  
Precipitation 0.00 in - - ()
Sea Level Pressure  
Sea Level Pressure 29.92 in    
Wind  
Wind Speed 8 mph (WSW)    
Max Wind Speed 17 mph    
Max Gust Speed 23 mph    
Visibility 10 miles    
Events      
Averages and records for this station are not official NWS values.
T = Trace of Precipitation, MM = Missing Value Source: NWS Daily Summary

Daily Weather History Graph

Daily Weather History Graph

Search for Another Location

Airport:

Trip Planner

Search our weather history database for the weather conditions in past years. The results will help you decide how hot, cold, wet, or windy it might be!

Date:

Astronomy

May. 02, 2014 Rise Set
Actual Time 6:23 AM CDT 8:16 PM CDT
Civil Twilight 5:54 AM CDT 8:45 PM CDT
Nautical Twilight 5:19 AM CDT 9:20 PM CDT
Astronomical Twilight 4:41 AM CDT 9:58 PM CDT
Moon 9:02 AM CDT (5/2) 11:38 PM CDT (5/2)
Length of Visible Light 14h 50m
Length of Day
13h 52m
Waxing Crescent, 12% of the Moon is Illuminated
May 2
Waxing Crescent
May 6
First Quarter
May 14
Full
May 21
Last Quarter
May 28
New

Hourly Weather History & Observations

Time (CDT) Temp. Windchill Dew Point Humidity Pressure Visibility Wind Dir Wind Speed Gust Speed Precip Events Conditions
12:53 AM 39.0 °F 34.0 °F 34.0 °F 82% 30.04 in 10.0 mi West 6.9 mph - N/A   Clear
1:53 AM 39.9 °F 35.8 °F 34.0 °F 79% 30.01 in 10.0 mi West 5.8 mph - N/A   Clear
2:53 AM 43.0 °F 38.8 °F 37.0 °F 80% 30.00 in 10.0 mi WSW 6.9 mph - N/A   Overcast
3:53 AM 39.0 °F 33.4 °F 35.1 °F 86% 29.99 in 10.0 mi WSW 8.1 mph - N/A   Mostly Cloudy
4:53 AM 37.9 °F - 33.1 °F 83% 29.99 in 10.0 mi Calm Calm - N/A   Clear
5:53 AM 37.9 °F 33.5 °F 33.1 °F 83% 29.98 in 10.0 mi WSW 5.8 mph - N/A   Clear
6:53 AM 37.9 °F - 33.1 °F 83% 29.98 in 10.0 mi Calm Calm - N/A   Scattered Clouds
7:53 AM 46.0 °F 43.1 °F 37.0 °F 71% 29.99 in 10.0 mi West 5.8 mph - N/A   Partly Cloudy
8:53 AM 52.0 °F - 39.0 °F 61% 29.99 in 10.0 mi West 5.8 mph - N/A   Clear
9:53 AM 59.0 °F - 37.0 °F 44% 29.96 in 10.0 mi West 10.4 mph - N/A   Clear
10:53 AM 61.0 °F - 35.1 °F 38% 29.96 in 10.0 mi West 12.7 mph - N/A   Clear
11:53 AM 63.0 °F - 32.0 °F 31% 29.95 in 10.0 mi West 17.3 mph 23.0 mph N/A   Clear
12:53 PM 64.9 °F - 32.0 °F 29% 29.94 in 10.0 mi West 15.0 mph 21.9 mph N/A   Clear
1:53 PM 66.9 °F - 32.0 °F 27% 29.91 in 10.0 mi NW 11.5 mph - N/A   Clear
2:53 PM 68.0 °F - 33.1 °F 27% 29.88 in 10.0 mi West 12.7 mph 21.9 mph N/A   Clear
3:53 PM 70.0 °F - 33.1 °F 26% 29.86 in 10.0 mi WSW 15.0 mph 21.9 mph N/A   Clear
4:53 PM 71.1 °F - 33.1 °F 25% 29.85 in 10.0 mi WSW 10.4 mph 18.4 mph N/A   Clear
5:53 PM 70.0 °F - 33.1 °F 26% 29.83 in 10.0 mi WSW 12.7 mph 19.6 mph N/A   Clear
6:53 PM 70.0 °F - 34.0 °F 27% 29.82 in 10.0 mi West 12.7 mph - N/A   Clear
7:53 PM 64.0 °F - 37.9 °F 38% 29.82 in 10.0 mi SW 6.9 mph - N/A   Clear
8:53 PM 60.1 °F - 37.0 °F 42% 29.82 in 10.0 mi SSW 6.9 mph - N/A   Clear
9:53 PM 57.9 °F - 37.0 °F 46% 29.83 in 10.0 mi SSW 8.1 mph - N/A   Clear
10:53 PM 57.9 °F - 35.1 °F 42% 29.83 in 10.0 mi SSW 9.2 mph - N/A   Clear
11:53 PM 55.9 °F - 35.1 °F 45% 29.82 in 10.0 mi SSW 10.4 mph - N/A   Clear